Weather History for Friday Harbor, WA

Change the Weather History Date:

Wednesday, January 9, 2013

  Actual Average Record
Temperature  
Mean Temperature 42 °F -  
Max Temperature 46 °F 43 °F 55 °F (2004)
Min Temperature 37 °F 35 °F 25 °F (1998)
Degree Days  
Heating Degree Days 24    
Moisture  
Dew Point 37 °F    
Average Humidity 82    
Maximum Humidity 97    
Minimum Humidity 73    
Precipitation  
Precipitation 0.06 in - - ()
Sea Level Pressure  
Sea Level Pressure 29.77 in    
Wind  
Wind Speed 9 mph (SW)    
Max Wind Speed 16 mph    
Max Gust Speed 26 mph    
Visibility 10 miles    
Events Rain    
Averages and records for this station are not official NWS values.
T = Trace of Precipitation, MM = Missing Value Source: NWS Daily Summary

Daily Weather History Graph

Daily Weather History Graph

Search for Another Location

Airport:

Trip Planner

Search our weather history database for the weather conditions in past years. The results will help you decide how hot, cold, wet, or windy it might be!

Date:

Astronomy

Jan. 09, 2013 Rise Set
Actual Time 8:02 AM PST 4:37 PM PST
Civil Twilight 7:26 AM PST 5:13 PM PST
Nautical Twilight 6:46 AM PST 5:52 PM PST
Astronomical Twilight 6:08 AM PST 6:30 PM PST
Moon 5:47 AM PST (1/9) 2:44 PM PST (1/9)
Length of Visible Light 9h 47m
Length of Day
8h 34m
Waning Crescent, 6% of the Moon is Illuminated
Jan 9
Waning Crescent
Jan 11
New
Jan 18
First Quarter
Jan 26
Full
Feb 3
Last Quarter

Hourly Weather History & Observations

Time (PST) Temp. Windchill Dew Point Humidity Pressure Visibility Wind Dir Wind Speed Gust Speed Precip Events Conditions
12:53 AM 45.0 °F 38.9 °F 42.1 °F 90% 29.71 in 8.0 mi SW 12.7 mph 26.5 mph 0.06 in Rain Light Rain
1:53 AM 45.0 °F 40.6 °F 44.1 °F 97% 29.71 in 10.0 mi SW 8.1 mph 20.7 mph 0.00 in   Overcast
2:53 AM 44.1 °F 38.1 °F 43.0 °F 96% 29.71 in 10.0 mi SW 11.5 mph 20.7 mph N/A   Overcast
3:53 AM 44.1 °F 37.7 °F 39.9 °F 85% 29.70 in 10.0 mi SW 12.7 mph 21.9 mph N/A   Overcast
4:53 AM 43.0 °F 36.8 °F 39.0 °F 86% 29.66 in 10.0 mi SW 11.5 mph 23.0 mph N/A   Overcast
5:53 AM 43.0 °F 37.2 °F 39.0 °F 86% 29.65 in 10.0 mi SW 10.4 mph 19.6 mph N/A   Overcast
6:53 AM 42.1 °F 36.6 °F 37.9 °F 85% 29.65 in 10.0 mi SW 9.2 mph 18.4 mph N/A   Overcast
7:53 AM 42.1 °F - 37.0 °F 82% 29.69 in 10.0 mi Calm Calm - N/A   Overcast
9:53 AM 42.1 °F 40.2 °F 37.0 °F 82% 29.72 in 10.0 mi Variable 3.5 mph - N/A   Mostly Cloudy
10:53 AM 43.0 °F 36.8 °F 37.0 °F 80% 29.73 in 10.0 mi SW 11.5 mph 20.7 mph N/A   Overcast
11:53 AM 46.0 °F 41.4 °F 37.9 °F 73% 29.74 in 10.0 mi SW 9.2 mph 20.7 mph N/A   Mostly Cloudy
12:53 PM 42.1 °F 34.2 °F 36.0 °F 79% 29.74 in 10.0 mi SW 16.1 mph 26.5 mph N/A   Mostly Cloudy
2:53 PM 42.1 °F 37.1 °F 36.0 °F 79% 29.77 in 10.0 mi SW 8.1 mph 19.6 mph N/A   Mostly Cloudy
3:53 PM 42.1 °F 35.7 °F 34.0 °F 73% 29.80 in 10.0 mi SW 11.5 mph 23.0 mph N/A   Overcast
4:53 PM 41.0 °F 39.0 °F 33.1 °F 73% 29.81 in 10.0 mi SW 3.5 mph - N/A   Mostly Cloudy
5:53 PM 41.0 °F 38.0 °F 34.0 °F 76% 29.83 in 10.0 mi Variable 4.6 mph - N/A   Clear
6:53 PM 39.9 °F 34.5 °F 32.0 °F 73% 29.84 in 10.0 mi SW 8.1 mph 16.1 mph N/A   Clear
7:53 PM 39.0 °F 34.0 °F 33.1 °F 79% 29.86 in 10.0 mi SW 6.9 mph - N/A   Clear
8:53 PM 39.0 °F 33.4 °F 33.1 °F 79% 29.89 in 10.0 mi SSW 8.1 mph - N/A   Clear
9:53 PM 37.9 °F - 32.0 °F 79% 29.91 in 10.0 mi Calm Calm - N/A   Clear
10:53 PM 39.0 °F 35.7 °F 33.1 °F 79% 29.93 in 10.0 mi SW 4.6 mph - N/A   Overcast
11:53 PM 39.9 °F 35.1 °F 35.1 °F 83% 29.94 in 10.0 mi SSE 6.9 mph - N/A   Overcast